Location: Berlise
(49.6641°N, 4.1077°E)
Time: 03:13:51
(UTC+00:00)

BREEZE-M DEB (TANK) - Pass Details

Date: 27 January 2021
Orbit: 326 x 16273 km, 49.5° (Epoch: 24 February)

Event Time Altitude Azimuth Distance (km) Brightness Sun altitude
Rises 03:19:22 0° 281° (W) 13,245 8.9 -39.0°
Enters shadow 03:22:07 - 281° (WNW) 12,543 8.8 -38.6°
Exits shadow 03:55:22 76° 224° (SW) 1,520 4.2 -33.4°
Maximum altitude 03:55:40 77° 203° (SSW) 1,466 4.1 -33.3°
Drops below altitude 10° 04:00:28 10° 117° (ESE) 2,283 6.0 -32.6°
Sets 04:01:51 0° 115° (ESE) 2,871 6.7 -32.3°
